This is the latest recevied weather packets stored in our database for station/object KG7DQI-13. If no packets are shown the sender has not sent any weather packets the latest 10 day(s).
| Time | Temp. | Humidity | Pressure | Rain* | Wind** | Luminosity | Snow |
|---|---|---|---|---|---|---|---|
| 1777793473 | 8.33° C | 74% | 913.9 hPa | 0 mm | - | 0 W/m² | - |
| 1777792557 | 9.44° C | 73% | 913.9 hPa | 0 mm | - | 0 W/m² | - |
| 1777791623 | 10.56° C | 70% | 914 hPa | 0 mm | - | 0 W/m² | - |
| 1777790762 | 11.67° C | 67% | 914.1 hPa | 0 mm | - | 0 W/m² | - |
| 1777789831 | 12.78° C | 64% | 913.9 hPa | 0 mm | - | 0 W/m² | - |
| 1777788936 | 13.33° C | 64% | 913.9 hPa | 0 mm | - | 0 W/m² | - |
| 1777788010 | 13.33° C | 64% | 913.7 hPa | 0 mm | - | 0 W/m² | - |
| 1777787139 | 12.78° C | 66% | 913.7 hPa | 0 mm | - | 0 W/m² | - |
| 1777786224 | 12.22° C | 68% | 913.5 hPa | 0 mm | - | 0 W/m² | - |
| 1777785298 | 11.67° C | 68% | 913.4 hPa | 0 mm | - | 0 W/m² | - |
| 1777784418 | 12.22° C | 67% | 913.4 hPa | 0 mm | - | 0 W/m² | - |
| 1777783507 | 12.22° C | 66% | 913.5 hPa | 0 mm | - | 0 W/m² | - |
| 1777782642 | 12.78° C | 66% | 913.5 hPa | 0 mm | - | 0 W/m² | - |
| 1777781711 | 13.33° C | 66% | 913.5 hPa | 0 mm | - | 0 W/m² | - |
| 1777780776 | 13.89° C | 64% | 913.4 hPa | 0 mm | - | 0 W/m² | - |
| 1777779873 | 14.44° C | 63% | 913.4 hPa | 0 mm | - | 0 W/m² | - |
| 1777778936 | 15.56° C | 61% | 913.3 hPa | 0 mm | - | 0 W/m² | - |
| 1777778028 | 16.11° C | 59% | 913 hPa | 0 mm | - | 0 W/m² | - |
| 1777777128 | 16.67° C | 57% | 913.1 hPa | 0 mm | - | 7 W/m² | - |
| 1777776240 | 17.22° C | 55% | 912.7 hPa | 0 mm | - | 16 W/m² | - |
| 1777775339 | 17.78° C | 54% | 912.5 hPa | 0 mm | - | 35 W/m² | - |
| 1777774424 | 17.78° C | 53% | 912.5 hPa | 0 mm | - | 54 W/m² | - |
| 1777773490 | 17.78° C | 52% | 912.2 hPa | 0 mm | - | 58 W/m² | - |
| 1777772564 | 18.33° C | 52% | 912.2 hPa | 0 mm | - | 58 W/m² | - |
| 1777771683 | 18.33° C | 52% | 912.2 hPa | 0 mm | - | 63 W/m² | - |
* Rain latest hour (hover to see other rain measurements)
** Current wind speed in m/s (hover to see current wind gust speed)